sat.trackr.live / text

‹ back to catalog

STARLINK-32729

NORAD 62497 · 2025-003L

PAYLOAD ACTIVE UNKNOWN

§ Identity

Operator
Country
US
Launch date
2025-01-06
Launch site
AFETR
Launch vehicle
Mass (kg)
RCS (m²)

Purposes: comms

External: N2YO · Heavens-Above · Gunter

§ Orbital elements

Epoch: 2026-09-21T17:09:29.363616Z

Period
94.27 min
Inclination
43.0026°
Eccentricity
0.0001303
Mean motion
15.27596995 rev/d
Perigee alt
482.1 km
Apogee alt
483.9 km
Semi-major
6,861.1 km
B*
5.2081e-4
RAAN
261.6979°
Arg perigee
269.2551°
Mean anomaly
90.8151°
Rev number
9,665

§ Raw data

STARLINK-327291 62497U 25003L   26264.71492319  .00014104  00000+0  52081-3 0  99922 62497  43.0026 261.6979 0001303 269.2551  90.8151 15.27596995 96650

JSON: /api/v1/satellites/62497 · /tle

For live sub-satellite position, see the globe view (requires WebGL).

§ Visibility from observer

Set your observer location to see the next 7 days of passes ≥ 10°. The values pass through the URL so the page stays shareable.

No JS? Fill the form by hand. The geolocation button needs JavaScript.